Weather History for KOOA - July, 2013

Change the Weather History Date:

Sunday, July 28, 2013

  Actual Average (KOTM) Record (KOTM)
Temperature  
Mean Temperature 60 °F 75 °F  
Max Temperature 73 °F 85 °F 105 °F (1983)
Min Temperature 46 °F 64 °F 48 °F (2013)
Degree Days  
Heating Degree Days 6 0  
Month to date heating degree days 0  
Since 1 June heating degree days 21  
Since 1 July heating degree days 0  
Cooling Degree Days 0 10  
Month to date cooling degree days 280  
Year to date cooling degree days 545  
Since 1 June cooling degree days 481  
Growing Degree Days 10 (Base 50)    
Moisture  
Dew Point 49 °F    
Average Humidity 69    
Maximum Humidity 92    
Minimum Humidity 42    
Precipitation  
Precipitation 0.00 in 0.14 in 1.90 in (1915)
Month to date precipitation 4.06  
Year to date precipitation 21.68  
Sea Level Pressure  
Sea Level Pressure 30.03 in    
Wind  
Wind Speed 6 mph (NW)    
Max Wind Speed 16 mph    
Max Gust Speed 23 mph    
Visibility 10 miles    
Events      
T = Trace of Precipitation, MM = Missing Value Source: NWS Daily Summary

Daily Weather History Graph

Daily Weather History Graph

Search for Another Location

Airport or City:

Trip Planner

Search our weather history database for the weather conditions in past years. The results will help you decide how hot, cold, wet, or windy it might be!

Date:

Astronomy

Jul. 28, 2013 Rise Set
Actual Time 6:01 AM CDT 8:30 PM CDT
Civil Twilight 5:30 AM CDT 9:01 PM CDT
Nautical Twilight 4:51 AM CDT 9:40 PM CDT
Astronomical Twilight 4:07 AM CDT 10:24 PM CDT
Moon 11:47 PM CDT (7/28) 12:49 PM CDT (7/28)
Length of Visible Light 15h 31m
Length of Day
14h 28m
Waning Gibbous, 60% of the Moon is Illuminated
Jul 28
Waning Gibbous
Jul 29
Last Quarter
Aug 6
New
Aug 14
First Quarter
Aug 20
Full

Hourly Weather History & Observations

Time (CDT) Temp. Dew Point Humidity Pressure Visibility Wind Dir Wind Speed Gust Speed Precip Events Conditions
12:15 AM 49.5 °F 46.6 °F 90% 30.00 in 10.0 mi SW 4.6 mph - N/A   Clear
12:35 AM 49.5 °F 46.6 °F 90% 30.00 in 10.0 mi WSW 4.6 mph - N/A   Clear
12:55 AM 49.6 °F 46.8 °F 90% 30.00 in 10.0 mi WSW 4.6 mph - N/A   Clear
1:15 AM 49.1 °F 46.2 °F 90% 30.00 in 10.0 mi West 3.5 mph - N/A   Clear
1:35 AM 48.6 °F 45.7 °F 90% 30.00 in 10.0 mi WSW 5.8 mph - N/A   Clear
1:55 AM 48.6 °F 45.7 °F 90% 30.00 in 10.0 mi WSW 4.6 mph - N/A   Clear
2:15 AM 48.6 °F 45.7 °F 90% 29.99 in 10.0 mi WSW 5.8 mph - N/A   Clear
2:35 AM 48.9 °F 45.7 °F 89% 30.00 in 10.0 mi West 3.5 mph - N/A   Clear
2:55 AM 47.8 °F 45.1 °F 90% 30.00 in 10.0 mi WSW 4.6 mph - N/A   Clear
3:15 AM 47.5 °F 45.0 °F 91% 30.00 in 10.0 mi WSW 5.8 mph - N/A   Clear
3:35 AM 47.7 °F 45.1 °F 91% 30.00 in 10.0 mi WSW 5.8 mph - N/A   Clear
3:55 AM 47.8 °F 45.0 °F 90% 30.00 in 10.0 mi WSW 6.9 mph - N/A   Clear
4:15 AM 48.2 °F 45.1 °F 89% 29.99 in 10.0 mi WSW 5.8 mph - N/A   Clear
4:35 AM 48.2 °F 44.8 °F 88% 29.99 in 10.0 mi West 4.6 mph - N/A   Clear
4:55 AM 48.2 °F 45.0 °F 89% 29.99 in 10.0 mi West 5.8 mph - N/A   Clear
5:15 AM 48.2 °F 45.0 °F 89% 29.99 in 10.0 mi West 6.9 mph - N/A   Clear
5:35 AM 47.3 °F 44.6 °F 90% 29.99 in 10.0 mi West 4.6 mph - N/A   Clear
5:55 AM 46.9 °F 44.2 °F 90% 30.00 in 10.0 mi West 6.9 mph - N/A   Clear
6:15 AM 46.9 °F 44.6 °F 92% 30.01 in 10.0 mi WNW 4.6 mph - N/A   Clear
6:35 AM 47.7 °F 45.0 °F 90% 30.01 in 10.0 mi West 4.6 mph - N/A   Clear
6:55 AM 48.7 °F 46.0 °F 90% 30.02 in 10.0 mi West 4.6 mph - N/A   Clear
7:15 AM 50.4 °F 47.3 °F 89% 30.02 in 10.0 mi West 5.8 mph - N/A   Clear
7:35 AM 52.3 °F 48.6 °F 87% 30.02 in 10.0 mi WNW 4.6 mph - N/A   Clear
7:55 AM 54.1 °F 49.3 °F 84% 30.03 in 10.0 mi WNW 6.9 mph - N/A   Clear
8:15 AM 56.1 °F 49.5 °F 78% 30.03 in 10.0 mi WNW 5.8 mph - N/A   Clear
8:35 AM 58.1 °F 49.5 °F 73% 30.04 in 10.0 mi NW 8.1 mph - N/A   Clear
8:55 AM 59.4 °F 49.5 °F 70% 30.03 in 10.0 mi NW 8.1 mph - N/A   Clear
9:15 AM 60.1 °F 48.6 °F 66% 30.04 in 10.0 mi NW 6.9 mph - N/A   Clear
9:35 AM 61.3 °F 48.9 °F 64% 30.04 in 10.0 mi NW 8.1 mph - N/A   Clear
9:55 AM 62.4 °F 48.6 °F 60% 30.04 in 10.0 mi NW 8.1 mph - N/A   Clear
10:15 AM 63.5 °F 47.8 °F 57% 30.03 in 10.0 mi WNW 10.4 mph - N/A   Clear
10:35 AM 64.4 °F 47.5 °F 54% 30.03 in 10.0 mi WNW 10.4 mph 16.1 mph N/A   Clear
10:55 AM 64.9 °F 47.3 °F 53% 30.04 in 10.0 mi NW 9.2 mph 21.9 mph N/A   Clear
11:15 AM 66.0 °F 47.8 °F 52% 30.04 in 10.0 mi WNW 10.4 mph - N/A   Clear
11:35 AM 66.6 °F 46.8 °F 49% 30.03 in 10.0 mi NW 16.1 mph 19.6 mph N/A   Clear
11:55 AM 67.8 °F 48.2 °F 49% 30.04 in 10.0 mi NW 11.5 mph 18.4 mph N/A   Clear
12:15 PM 68.0 °F 47.1 °F 47% 30.03 in 10.0 mi NW 12.7 mph 17.3 mph N/A   Clear
12:35 PM 68.4 °F 48.0 °F 48% 30.03 in 10.0 mi WNW 11.5 mph 20.7 mph N/A   Clear
12:55 PM 69.3 °F 48.4 °F 47% 30.03 in 10.0 mi WNW 11.5 mph 17.3 mph N/A   Clear
1:15 PM 69.8 °F 47.5 °F 45% 30.02 in 10.0 mi NW 10.4 mph 21.9 mph N/A   Clear
1:35 PM 70.3 °F 47.1 °F 43% 30.02 in 10.0 mi NW 13.8 mph 23.0 mph N/A   Clear
1:55 PM 71.1 °F 48.6 °F 45% 30.03 in 10.0 mi NW 10.4 mph 18.4 mph N/A   Clear
2:15 PM 71.6 °F 48.6 °F 44% 30.02 in 10.0 mi NW 12.7 mph 18.4 mph N/A   Clear
2:35 PM 71.8 °F 48.4 °F 43% 30.02 in 10.0 mi NW 9.2 mph 17.3 mph N/A   Clear
2:55 PM 72.3 °F 48.4 °F 43% 30.02 in 10.0 mi NW 5.8 mph 17.3 mph N/A   Scattered Clouds
3:15 PM 73.0 °F 49.8 °F 44% 30.02 in 10.0 mi NNW 10.4 mph 16.1 mph N/A   Clear
3:35 PM 72.9 °F 48.9 °F 43% 30.02 in 10.0 mi NNW 10.4 mph 16.1 mph N/A   Clear
3:55 PM 72.9 °F 48.2 °F 42% 30.02 in 10.0 mi NNW 10.4 mph 20.7 mph N/A   Clear
4:15 PM 73.2 °F 50.0 °F 44% 30.02 in 10.0 mi NW 9.2 mph - N/A   Scattered Clouds
4:35 PM 71.2 °F 48.7 °F 45% 30.02 in 10.0 mi NW 9.2 mph 17.3 mph N/A   Scattered Clouds
4:55 PM 73.8 °F 49.5 °F 42% 30.02 in 10.0 mi NNW 10.4 mph - N/A   Scattered Clouds
5:15 PM 73.6 °F 49.8 °F 43% 30.02 in 10.0 mi NW 8.1 mph - N/A   Scattered Clouds
5:35 PM 73.8 °F 49.1 °F 42% 30.02 in 10.0 mi WNW 6.9 mph - N/A   Mostly Cloudy
5:55 PM 71.1 °F 48.7 °F 45% 30.02 in 10.0 mi NW 4.6 mph - N/A   Mostly Cloudy
6:15 PM 70.3 °F 49.6 °F 48% 30.02 in 10.0 mi NW 4.6 mph - N/A   Mostly Cloudy
6:35 PM 72.3 °F 50.7 °F 46% 30.02 in 10.0 mi NNW 4.6 mph - N/A   Mostly Cloudy
6:55 PM 71.1 °F 50.4 °F 48% 30.02 in 10.0 mi NNW 4.6 mph - N/A   Mostly Cloudy
7:15 PM 70.0 °F 51.3 °F 51% 30.03 in 10.0 mi NNE 3.5 mph - N/A   Scattered Clouds
7:35 PM 68.2 °F 52.3 °F 57% 30.03 in 10.0 mi NNE 3.5 mph - N/A   Scattered Clouds
7:55 PM 66.2 °F 54.0 °F 65% 30.04 in 10.0 mi Calm Calm - N/A   Scattered Clouds
8:15 PM 64.4 °F 54.1 °F 69% 30.04 in 10.0 mi ENE 4.6 mph - N/A   Scattered Clouds
8:35 PM 63.3 °F 54.0 °F 71% 30.04 in 10.0 mi ENE 3.5 mph - N/A   Scattered Clouds
8:55 PM 61.5 °F 54.0 °F 76% 30.05 in 10.0 mi ENE 4.6 mph - N/A   Scattered Clouds
9:15 PM 59.7 °F 53.6 °F 80% 30.05 in 10.0 mi ENE 4.6 mph - N/A   Clear
9:35 PM 59.4 °F 53.1 °F 80% 30.06 in 10.0 mi ENE 4.6 mph - N/A   Clear
9:55 PM 58.3 °F 52.7 °F 82% 30.07 in 10.0 mi ENE 4.6 mph - N/A   Clear
10:15 PM 57.6 °F 52.7 °F 84% 30.07 in 10.0 mi ENE 4.6 mph - N/A   Clear
10:35 PM 56.8 °F 52.2 °F 84% 30.07 in 10.0 mi ENE 3.5 mph - N/A   Clear
10:55 PM 56.3 °F 51.8 °F 85% 30.07 in 10.0 mi ENE 4.6 mph - N/A   Clear
11:15 PM 55.0 °F 50.9 °F 86% 30.08 in 10.0 mi East 3.5 mph - N/A   Clear
11:35 PM 55.6 °F 51.6 °F 87% 30.08 in 10.0 mi ENE 4.6 mph - N/A   Clear
11:55 PM 55.4 °F 51.3 °F 86% 30.08 in 10.0 mi ENE 4.6 mph - N/A   Clear